Header for Extended Forecast Station List Page

Search by: ID | Name | Date | Parm | Value | Avg | % Avg
Sort by: ID | Name | Date | Parm | Value | Avg | % Avg

Enter search or view all records.

Click on id for station plot
#IDNameDateParmValueAvg% Avg
0LEOI1KOOTENAI-AT LEONIA02-18-2020DISCHARGE (KAF)2924367480
1FCFM8NF FLATHEAD-NEAR COLUMBIA FALLS02-18-2020DISCHARGE (KAF)12631135111
2WGCM8MF FLATHEAD-NEAR WEST GLACIER02-18-2020DISCHARGE (KAF)12571103114
3CFMM8FLATHEAD-AT COLUMBIA FALLS02-18-2020DISCHARGE (KAF)37703144120
4DLGM8CLARK FORK-AT DEER LODGE02-18-2020DISCHARGE (KAF)8181100
5DRMM8CLARK FORK-NR DRUMMOND02-18-2020DISCHARGE (KAF)279MM
6RCCM8ROCK CREEK-NEAR CLINTON02-18-2020DISCHARGE (KAF)203184110
7BONM8BLACKFOOT-NEAR BONNER02-18-2020DISCHARGE (KAF)733615119
8ABOM8CLARK FORK-ABOVE MISSOULA02-18-2020DISCHARGE (KAF)12601123112
9BITM8BITTERROOT-NEAR MISSOULA02-18-2020DISCHARGE (KAF)956918104
10BELM8CLARK FORK-BELOW MISSOULA02-18-2020DISCHARGE (KAF)22172060108
11STRM8ST. REGIS-NEAR ST. REGIS02-18-2020DISCHARGE (KAF)21623393
12SRGM8CLARK FORK-AT ST REGIS02-18-2020DISCHARGE (KAF)2744281098
13PRTI1PRIEST-NEAR PRIEST RIVER02-18-2020DISCHARGE (KAF)809697116
14SPOW1SPOKANE-AT SPOKANE02-18-2020DISCHARGE (KAF)2828MM
15SATI1ST MARIES-NEAR SANTA02-18-2020DISCHARGE (KAF)163151108
16CIBW1COLUMBIA-AT INTL BOUNDARY02-18-2020DISCHARGE (KAF)23924MM
17LAUW1KETTLE-AT LAURIER02-18-2020DISCHARGE (KAF)19051417134
18TONW1OKANOGAN-NEAR TONASKET02-18-2020DISCHARGE (KAF)12081121108
19PATW1METHOW-NEAR PATEROS02-18-2020DISCHARGE (KAF)676621109
20ARDW1ENTIAT-NEAR ARDENVOIR02-18-2020DISCHARGE (KAF)138135102
21PESW1WENATCHEE-AT PESHASTIN02-18-2020DISCHARGE (KAF)11331054107
22EASW1YAKIMA-AT EASTON02-18-2020DISCHARGE (KAF)127100127
23TNAW1TEANAWAY-BELOW FORKS02-18-2020DISCHARGE (KAF)157132119
24UMTW1YAKIMA-AT UMTANUM02-18-2020DISCHARGE (KAF)697624112
25CLFW1NACHES-NEAR CLIFFDEL02-18-2020DISCHARGE (KAF)399314127
26NACW1NACHES-NEAR NACHES02-18-2020DISCHARGE (KAF)600400150
27PARW1YAKIMA-NEAR PARKER02-18-2020DISCHARGE (KAF)829645129
28KIOW1YAKIMA-AT KIONA02-18-2020DISCHARGE (KAF)10831023106
29CHEI1FALL RIVER-NEAR CHESTER02-18-2020DISCHARGE (KAF)318281113
30ANTI1HENRYS FORK-AT ST. ANTHONY02-18-2020DISCHARGE (KAF)649594109
31TEAI1TETON-NEAR ST. ANTHONY02-18-2020DISCHARGE (KAF)306246124
32REXI1HENRYS FORK-AT REXBURG02-18-2020DISCHARGE (KAF)789693114
33JKSW4SNAKE-NEAR JACKSON02-18-2020DISCHARGE (KAF)1170932126
34ALPW4SNAKE-NEAR ALPINE02-18-2020DISCHARGE (KAF)14891232121
35HEII1SNAKE-NEAR HEISE02-18-2020DISCHARGE (KAF)26981861145
36SIFI1SNAKE-AB EAGLE ROCK NR IDAHO FALLS02-18-2020DISCHARGE (KAF)27881885148
37SHYI1SNAKE-NEAR SHELLEY02-18-2020DISCHARGE (KAF)26691875142
38SNAI1SNAKE-AT BLACKFOOT02-18-2020DISCHARGE (KAF)23791624146
39BFTI1SNAKE-NEAR BLACKFOOT02-18-2020DISCHARGE (KAF)23461606146
40PIHI1PORTNEUF-AT POCATELLO02-18-2020DISCHARGE (KAF)8510185
41MILI1SNAKE-AT MILNER02-18-2020DISCHARGE (KAF)54664784
42HOTI1BRUNEAU-NEAR HOT SPRINGS02-18-2020DISCHARGE (KAF)185164113
43SWAI1SNAKE-BELOW SWAN FALLS02-18-2020DISCHARGE (KAF)2288267985
44HWRI1BIG LOST-AT HOWELL RANCH NEAR CHILLY02-18-2020DISCHARGE (KAF)809683
45HALI1BIG WOOD-AT HAILEY02-18-2020DISCHARGE (KAF)12115877
46BIGI1BOISE-AT GLENWOOD BRIDGE02-18-2020DISCHARGE (KAF)352348101
47PARI1BOISE-NEAR PARMA02-18-2020DISCHARGE (KAF)39241894
48EMMI1PAYETTE-NEAR EMMETT02-18-2020DISCHARGE (KAF)842109577
49WSRI1WEISER-NEAR WEISER02-18-2020DISCHARGE (KAF)451436103
50WEII1SNAKE-AT WEISER02-18-2020DISCHARGE (KAF)4337533281
51WHBI1SALMON-AT WHITEBIRD02-18-2020DISCHARGE (KAF)3710428487
52TRYO3GRANDE RONDE-TROY02-18-2020DISCHARGE (KAF)17221221141
53ANAW1SNAKE-NEAR ANATONE02-18-2020DISCHARGE (KAF)104621225885
54ORFI1CLEARWATER-AT OROFINO02-18-2020DISCHARGE (KAF)46904028116
55SPDI1CLEARWATER-AT SPALDING02-18-2020DISCHARGE (KAF)68056310108
56TCHW1WALLA WALLA-NEAR TOUCHET02-18-2020DISCHARGE (KAF)271193141
57GIBO3UMATILLA-NEAR GIBBON02-18-2020DISCHARGE (KAF)11783140
58PDTO3UMATILLA-AT PENDLETON02-18-2020DISCHARGE (KAF)274188146
59MYKO3MCKAY CREEK-NEAR PILOT ROCK02-18-2020DISCHARGE (KAF)5936164
60UMAO3UMATILLA-NEAR UMATILLA02-18-2020DISCHARGE (KAF)291149196
61MONO3NF JOHN DAY-AT MONUMENT02-18-2020DISCHARGE (KAF)697625112
62SERO3JOHN DAY-AT SERVICE CK02-18-2020DISCHARGE (KAF)953901106
63MODO3DESCHUTES-AT MOODY NR BIGGS02-18-2020DISCHARGE (KAF)1394153891
64PITW1KLICKITAT-NEAR PITT02-18-2020DISCHARGE (KAF)48853092
65HODO3HOOD-NEAR TUCKER BRIDGE02-18-2020DISCHARGE (KAF)27027499
66UNDW1WHITE SALMON-NEAR UNDERWOOD02-18-2020DISCHARGE (KAF)33835795
67LYDM8KOOTENAI-LIBBY DAM02-18-2020INFLOW (KAF)36233559102
68HHWM8SF FLATHEAD-HUNGRY HORSE DAM02-18-2020INFLOW (KAF)16581478112
69KERM8FLATHEAD-KERR DAM02-18-2020INFLOW (KAF)43463990109
70NOXM8CLARK FORK-NOXON RAPIDS DAM02-18-2020INFLOW (KAF)6581730590
71CABI1CLARK FORK-CABINET GORGE DAM02-18-2020INFLOW (KAF)7268766195
72ALFW1PEND OREILLE-ALBENI FALLS DAM02-18-2020INFLOW (KAF)8784925495
73COEI1COEUR D ALENE-COEUR D ALENE LAKE02-18-2020INFLOW (KAF)29732805106
74LLKW1SPOKANE-AT LONGLAKE02-18-2020INFLOW (KAF)3171338194
75GCDW1COLUMBIA-GRAND COULEE DAM02-18-2020INFLOW (KAF)291812985698
76CHJW1COLUMBIA-CHIEF JOSEPH DAM02-18-2020INFLOW (KAF)3172427500115
77WELW1COLUMBIA-WELLS DAM02-18-2020INFLOW (KAF)3358529314115
78CHDW1CHELAN-LAKE CHELAN DAM02-18-2020INFLOW (KAF)814685119
79RRHW1COLUMBIA-ROCKY REACH DAM02-18-2020INFLOW (KAF)3420029776115
80WANW1COLUMBIA-WANAPUM DAM02-18-2020INFLOW (KAF)3531331503112
81PRWW1COLUMBIA-PRIEST RAPIDS DAM02-18-2020INFLOW (KAF)3530632011110
82KEDW1YAKIMA-KEECHELUS LAKE02-18-2020INFLOW (KAF)124104119
83KADW1KACHESS-KACHESS DAM02-18-2020INFLOW (KAF)11499115
84CLUW1CLE ELUM-CLE ELUM LAKE02-18-2020INFLOW (KAF)355309115
85BUDW1BUMPING-BUMPING LAKE DAM02-18-2020INFLOW (KAF)11992129
86RILW1TIETON-RIMROCK LAKE NEAR RIMROCK02-18-2020INFLOW (KAF)174153113
87IPDI1HENRYS FORK-ISLAND PARK DAM02-18-2020INFLOW (KAF)194176110
88JLKW4SNAKE-JACKSON LAKE AT DAM02-18-2020INFLOW (KAF)545514106
89PLDI1SF SNAKE-PALISADES DAM02-18-2020INFLOW (KAF)22161907116
90RIDI1WILLOW CREEK-RIRIE DAM02-18-2020INFLOW (KAF)6443149
91AFRI1SNAKE-AMERICAN FALLS RESERVOIR02-18-2020INFLOW (KAF)29342277129
92MACI1BIG LOST-MACKAY RESERVOIR NEAR MACKAY02-18-2020INFLOW (KAF)729775
93MAGI1BIG WOOD-MAGIC DAM02-18-2020INFLOW (KAF)11920658
94LWRI1LITTLE WOOD-LITTLE WOOD DAM02-18-2020INFLOW (KAF)386756
95OWYO3OWYHEE-OWYHEE DAM02-18-2020INFLOW (KAF)447361124
96ARAI1SF BOISE-ANDERSON RANCH DAM02-18-2020INFLOW (KAF)36943285
97LUCI1BOISE-LUCKY PEAK DAM02-18-2020INFLOW (KAF)991MM
98WRMO3MALHEUR-WARM SPRINGS DAM02-18-2020INFLOW (KAF)7971110
99BERO3MALHEUR-AGENCY VALLEY DAM02-18-2020INFLOW (KAF)445285
100BULO3BULLY CREEK-BULLY CREEK DAM02-18-2020INFLOW (KAF)128146
101CSDI1NF PAYETTE-CASCADE DAM02-18-2020INFLOW (KAF)42144096
102DEDI1DEADWOOD-NEAR LOWMAN02-18-2020INFLOW (KAF)9910396
103BRNI1SNAKE-BROWNLEE DAM02-18-2020INFLOW (KAF)4848576684
104DWRI1NF CLEARWATER-DWORSHAK DAM02-18-2020INFLOW (KAF)27912527110
105LGDW1SNAKE-LOWER GRANITE DAM02-18-2020INFLOW (KAF)172671856493
106LGSW1SNAKE-LITTLE GOOSE DAM02-18-2020INFLOW (KAF)172671860293
107LMNW1SNAKE-LOWER MONUMENTAL DAM02-18-2020INFLOW (KAF)174431881293
108IHDW1SNAKE-ICE HARBOR DAM02-18-2020INFLOW (KAF)174431867793
109MCDW1COLUMBIA-MCNARY DAM02-18-2020INFLOW (KAF)5397352823102
110JDAO3COLUMBIA-JOHN DAY DAM02-18-2020INFLOW (KAF)5651155399102
111TDAO3COLUMBIA-THE DALLES DAM02-18-2020INFLOW (KAF)5689253399107
112BONO3COLUMBIA-BONNEVILLE DAM02-18-2020INFLOW (KAF)5797055806104
113HOPI1PEND OREILLE-PEND OREILLE LAKE NR HOPE02-18-2020LAKE ELEVATION (FT)MMM
114BFEI1KOOTENAI-AT BONNERS FERRY02-18-2020STAGE (FT)MMM
115SJMI1ST JOE-AT ST MARIES02-18-2020STAGE (FT)MMM